Flag for U.S.A. Weather past 2 weeks in Springfield, Missouri, U.S.A.

Now
54 °F

Mostly cloudy.


Feels Like: 53 °F
Forecast: 51 / 71 °F
Wind: 5 mph from South

Location: Springfield Regional Airport

Current Time: Oct 20, 2014 at 5:19:34 AM

Latest Report: Oct 20, 2014 at 4:52 AM


Visibility: 10 mi

Pressure: 30.01 "Hg

Humidity: 90%

Dew point: 51 °F

Location of SpringfieldLocation

Historic Weather in Springfield — Graph

°F

Springfield temperature yesterday

Maximum temperature yesterday: 66 °F (at 3:52 PM)
Minimum temperature yesterday: 41 °F (at 12:52 AM)
Average temperature yesterday: 53 °F

Past Weeks' High & Low Weather Summary

 TemperatureHumidityPressure
High83 °F (Oct 9, 1:52 PM)97% (Oct 9, 11:52 PM)30.22 "Hg (Oct 9, 11:52 PM)
Low41 °F (Oct 16, 2:52 AM)29% (Oct 15, 2:52 PM)29.44 "Hg (Oct 13, 2:52 PM)
Average59 °F74%29.91 "Hg
* Reported Oct 5 3:52 AM — Oct 20 3:52 AM, Springfield, Weather by CustomWeather, © 2014

Note: Actual official high and low records may vary slightly from our data, if they occured in-between our weather recording intervals... More about our weather records

Advertising

Springfield weather history for previous 24 hours

 ConditionsComfort  
Time TempWeatherWind HumidityBarometerVisibility
3:52 AM
Oct 20
54 °FMostly cloudy.6 mph86%30.02 "Hg10 mi
2:52 AM54 °FOvercast.7 mph86%30.03 "Hg10 mi
1:52 AM54 °FOvercast.5 mph86%30.03 "Hg10 mi
12:52 AM54 °FPassing clouds.3 mph83%30.04 "Hg10 mi
11:52 PM
Oct 19
54 °FOvercast.8 mph83%30.04 "Hg10 mi
9:52 PM54 °FClear.8 mph83%30.06 "Hg10 mi
8:52 PM55 °FPassing clouds.8 mph80%30.06 "Hg10 mi
7:52 PM55 °FClear.7 mph80%30.07 "Hg10 mi
6:52 PM58 °FSunny.7 mph75%30.07 "Hg10 mi
5:52 PM63 °FSunny.7 mph65%30.06 "Hg10 mi
4:52 PM66 °FPassing clouds.7 mph59%30.07 "Hg10 mi
3:52 PM66 °FSunny.3 mph56%30.09 "Hg10 mi
2:52 PM64 °FSunny.10 mph58%30.11 "Hg10 mi
1:52 PM64 °FSunny.6 mph58%30.14 "Hg10 mi
12:52 PM62 °FSunny.8 mph60%30.17 "Hg10 mi
11:52 AM58 °FSunny.14 mph67%30.20 "Hg10 mi
10:52 AM55 °FSunny.14 mph74%30.22 "Hg10 mi
9:52 AM52 °FSunny.12 mph80%30.22 "Hg10 mi
8:52 AM47 °FSunny.8 mph86%30.22 "Hg10 mi
7:52 AM43 °FClear.6 mph89%30.21 "Hg10 mi
6:52 AM42 °FClear.8 mph89%30.20 "Hg10 mi
5:52 AM41 °FClear.6 mph89%30.19 "Hg10 mi
Weather by CustomWeather, © 2014

See weather overviewHow to use our weather pages